Rush City, MN

1:24 AM CDT on June 26, 2017 (GMT -0500)
Rush City Regional

Weather History for KROS - January, 2014

Change the Weather History Date:

Saturday, January 18, 2014

  Actual Average (KCBG) Record (KCBG)
Temperature  
Mean Temperature 12 °F -  
Max Temperature 18 °F 19 °F 44 °F (1981)
Min Temperature 5 °F -1 °F -31 °F (1970)
Degree Days  
Heating Degree Days 54    
Moisture  
Dew Point 7 °F    
Average Humidity 76    
Maximum Humidity 87    
Minimum Humidity 59    
Precipitation  
Precipitation 0.03 in - - ()
Sea Level Pressure  
Sea Level Pressure 29.77 in    
Wind  
Wind Speed 5 mph (ESE)    
Max Wind Speed 12 mph    
Max Gust Speed 18 mph    
Visibility 9 miles    
Events Snow    
Averages and records for this station are not official NWS values.
T = Trace of Precipitation, MM = Missing Value Source: NWS Daily Summary

Daily Weather History Graph

Daily Weather History Graph

Search for Another Location

Airport or City:

Trip Planner

Search our weather history database for the weather conditions in past years. The results will help you decide how hot, cold, wet, or windy it might be!

Date:

Astronomy

Jan. 18, 2014 Rise Set
Actual Time 7:46 AM CST 4:58 PM CST
Civil Twilight 7:13 AM CST 5:31 PM CST
Nautical Twilight 6:37 AM CST 6:07 PM CST
Astronomical Twilight 6:01 AM CST 6:43 PM CST
Moon 7:51 PM CST (1/18) 8:37 AM CST (1/18)
Length of Visible Light 10h 17m
Length of Day
9h 11m
Waning Gibbous, 94% of the Moon is Illuminated
Jan 18
Waning Gibbous
Jan 23
Last Quarter
Jan 30
New
Feb 6
First Quarter
Feb 14
Full

Hourly Weather History & Observations

Time (CST) Temp. Windchill Dew Point Humidity Pressure Visibility Wind Dir Wind Speed Gust Speed Precip Events Conditions
12:14 AM 5.9 °F - -0.4 °F 75% 29.78 in 10.0 mi Calm Calm - N/A   Overcast
12:35 AM 6.3 °F -0.7 °F -0.0 °F 75% 29.76 in 10.0 mi ESE 3.5 mph - N/A   Overcast
12:55 AM 6.4 °F -2.4 °F 0.1 °F 75% 29.74 in 10.0 mi ESE 4.6 mph - N/A   Overcast
1:15 AM 6.4 °F -2.4 °F 0.3 °F 76% 29.72 in 10.0 mi SE 4.6 mph - N/A   Overcast
1:35 AM 6.8 °F -4.8 °F 0.7 °F 76% 29.70 in 10.0 mi SE 6.9 mph - N/A   Overcast
1:55 AM 7.3 °F -1.3 °F 1.4 °F 77% 29.69 in 10.0 mi SE 4.6 mph - N/A   Overcast
2:15 AM 7.7 °F -0.9 °F 2.1 °F 78% 29.67 in 10.0 mi ESE 4.6 mph - N/A   Overcast
2:35 AM 8.4 °F -1.6 °F 3.0 °F 79% 29.67 in 10.0 mi ESE 5.8 mph - N/A   Overcast
2:55 AM 8.6 °F -1.3 °F 4.1 °F 82% 29.66 in 5.0 mi SE 5.8 mph - N/A Snow Light Snow
3:15 AM 9.1 °F -0.7 °F 5.2 °F 84% 29.66 in 5.0 mi ESE 5.8 mph - N/A Snow Light Snow
3:35 AM 9.7 °F -1.3 °F 6.3 °F 86% 29.64 in 4.0 mi ESE 6.9 mph - N/A Snow Light Snow
3:55 AM 10.0 °F -0.9 °F 6.8 °F 87% 29.63 in 4.0 mi East 6.9 mph - N/A Snow Light Snow
4:15 AM 10.2 °F -1.7 °F 7.0 °F 87% 29.63 in 4.0 mi East 8.1 mph - N/A Snow Light Snow
4:35 AM 10.8 °F 0.0 °F 7.5 °F 87% 29.62 in 5.0 mi East 6.9 mph - N/A Snow Light Snow
4:54 AM 11.1 °F 0.4 °F 7.9 °F 87% 29.61 in 3.0 mi East 6.9 mph - N/A Snow Light Snow
5:15 AM 10.9 °F -0.8 °F 7.7 °F 87% 29.61 in 4.0 mi East 8.1 mph - N/A Snow Light Snow
5:35 AM 10.9 °F -1.8 °F 7.7 °F 87% 29.62 in 3.0 mi East 9.2 mph - N/A Snow Light Snow
5:54 AM 10.9 °F -1.8 °F 7.7 °F 87% 29.63 in 4.0 mi East 9.2 mph - N/A Snow Light Snow
6:15 AM 10.8 °F -1.1 °F 7.5 °F 87% 29.63 in 4.0 mi East 8.1 mph - N/A Snow Light Snow
6:35 AM 10.9 °F 1.4 °F 7.5 °F 86% 29.64 in 5.0 mi East 5.8 mph - N/A Snow Light Snow
6:55 AM 11.1 °F 1.7 °F 7.7 °F 86% 29.65 in 7.0 mi East 5.8 mph - N/A Snow Light Snow
7:15 AM 11.1 °F -0.6 °F 7.7 °F 86% 29.67 in 5.0 mi ENE 8.1 mph - N/A Snow Light Snow
7:35 AM 10.4 °F -1.5 °F 7.2 °F 87% 29.68 in 4.0 mi ENE 8.1 mph - N/A Snow Light Snow
7:55 AM 10.2 °F -0.6 °F 6.8 °F 86% 29.69 in 3.0 mi NE 6.9 mph - N/A Snow Light Snow
8:15 AM 10.2 °F -0.6 °F 6.8 °F 86% 29.71 in 4.0 mi NE 6.9 mph - N/A Snow Light Snow
8:35 AM 9.5 °F 1.2 °F 5.9 °F 85% 29.72 in 10.0 mi NE 4.6 mph - N/A Snow Light Snow
8:55 AM 10.4 °F 0.8 °F 6.4 °F 84% 29.74 in 10.0 mi NNE 5.8 mph - N/A   Overcast
9:15 AM 10.9 °F -0.8 °F 6.6 °F 83% 29.76 in 10.0 mi ENE 8.1 mph - N/A   Overcast
9:35 AM 11.3 °F -0.4 °F 6.8 °F 82% 29.78 in 10.0 mi NE 8.1 mph - N/A   Overcast
9:55 AM 11.8 °F 1.3 °F 7.3 °F 82% 29.79 in 10.0 mi ENE 6.9 mph - N/A   Overcast
10:15 AM 12.0 °F 1.5 °F 6.8 °F 80% 29.81 in 10.0 mi NE 6.9 mph - N/A   Overcast
10:35 AM 11.3 °F 1.9 °F 5.5 °F 78% 29.82 in 10.0 mi NNE 5.8 mph - N/A   Overcast
10:55 AM 12.4 °F 4.6 °F 5.4 °F 73% 29.82 in 10.0 mi NNE 4.6 mph - N/A   Overcast
11:15 AM 12.7 °F 2.4 °F 5.0 °F 71% 29.84 in 10.0 mi NNE 6.9 mph - N/A   Mostly Cloudy
11:34 AM 12.7 °F 2.4 °F 4.1 °F 68% 29.85 in 10.0 mi North 6.9 mph - N/A   Scattered Clouds
11:55 AM 12.2 °F 0.7 °F 3.9 °F 69% 29.87 in 10.0 mi North 8.1 mph - N/A   Scattered Clouds
12:15 PM 13.1 °F 1.8 °F 4.1 °F 67% 29.87 in 10.0 mi North 8.1 mph - N/A   Clear
12:34 PM 14.4 °F 8.6 °F 4.3 °F 64% 29.87 in 10.0 mi North 3.5 mph - N/A   Clear
12:55 PM 15.3 °F 4.4 °F 5.2 °F 64% 29.87 in 10.0 mi North 8.1 mph - N/A   Mostly Cloudy
1:15 PM 15.8 °F 10.2 °F 5.2 °F 63% 29.87 in 10.0 mi North 3.5 mph - N/A   Mostly Cloudy
1:34 PM 16.5 °F - 5.9 °F 63% 29.88 in 10.0 mi Calm Calm - N/A   Clear
1:55 PM 18.0 °F - 5.9 °F 59% 29.88 in 10.0 mi Calm Calm - N/A   Clear
2:15 PM 17.6 °F - 6.3 °F 61% 29.87 in 10.0 mi Calm Calm - N/A   Clear
2:35 PM 18.0 °F - 6.1 °F 60% 29.85 in 10.0 mi Calm Calm - 0.02 in   Clear
2:55 PM 18.5 °F - 6.6 °F 60% 29.86 in 10.0 mi Calm Calm - 0.03 in   Clear
3:14 PM 18.1 °F - 6.4 °F 60% 29.88 in 10.0 mi Calm Calm - N/A   Clear
3:35 PM 18.3 °F - 6.1 °F 59% 29.88 in 10.0 mi Calm Calm - N/A   Clear
3:55 PM 18.3 °F - 6.6 °F 60% 29.88 in 10.0 mi Calm Calm - N/A   Clear
4:14 PM 18.1 °F - 6.6 °F 61% 29.89 in 10.0 mi Calm Calm - N/A   Clear
4:35 PM 16.7 °F - 6.6 °F 65% 29.90 in 10.0 mi Calm Calm - N/A   Clear
4:55 PM 15.3 °F - 6.4 °F 68% 29.91 in 10.0 mi Calm Calm - N/A   Clear
5:14 PM 14.4 °F - 6.8 °F 72% 29.91 in 10.0 mi Calm Calm - N/A   Clear
5:35 PM 14.4 °F 8.6 °F 7.2 °F 73% 29.90 in 10.0 mi SSW 3.5 mph - N/A   Clear
5:55 PM 14.5 °F 8.8 °F 7.3 °F 73% 29.89 in 10.0 mi SW 3.5 mph - N/A   Clear
6:15 PM 16.2 °F 10.6 °F 8.6 °F 72% 29.88 in 10.0 mi SW 3.5 mph - N/A   Clear
6:35 PM 15.4 °F 9.8 °F 8.2 °F 73% 29.87 in 10.0 mi WSW 3.5 mph - N/A   Clear
6:55 PM 15.8 °F - 9.0 °F 74% 29.85 in 10.0 mi Calm Calm - N/A   Scattered Clouds
7:14 PM 16.5 °F 8.1 °F 9.5 °F 74% 29.84 in 10.0 mi SW 5.8 mph - N/A   Mostly Cloudy
7:35 PM 16.7 °F 6.2 °F 10.0 °F 75% 29.82 in 10.0 mi SW 8.1 mph - N/A   Mostly Cloudy
7:55 PM 17.4 °F 9.1 °F 10.4 °F 74% 29.82 in 10.0 mi SW 5.8 mph - N/A   Overcast
8:14 PM 17.6 °F 9.3 °F 10.8 °F 75% 29.81 in 10.0 mi SW 5.8 mph - N/A   Overcast
8:35 PM 17.6 °F 8.2 °F 10.9 °F 75% 29.79 in 10.0 mi SW 6.9 mph - N/A   Overcast
8:55 PM 17.6 °F 8.2 °F 11.3 °F 76% 29.78 in 10.0 mi SW 6.9 mph - N/A   Overcast
9:14 PM 17.6 °F 6.4 °F 11.7 °F 78% 29.77 in 10.0 mi WSW 9.2 mph - N/A   Mostly Cloudy
9:35 PM 17.6 °F 6.4 °F 11.8 °F 78% 29.74 in 10.0 mi WSW 9.2 mph 16.1 mph N/A   Mostly Cloudy
9:55 PM 17.4 °F 5.4 °F 11.8 °F 79% 29.72 in 10.0 mi WSW 10.4 mph 16.1 mph N/A   Scattered Clouds
10:15 PM 16.7 °F 6.2 °F 11.3 °F 79% 29.72 in 10.0 mi WSW 8.1 mph - N/A   Scattered Clouds
10:35 PM 16.5 °F 3.6 °F 11.3 °F 80% 29.71 in 10.0 mi WSW 11.5 mph 18.4 mph N/A   Mostly Cloudy
10:54 PM 16.5 °F 5.1 °F 11.5 °F 81% 29.69 in 10.0 mi SW 9.2 mph - N/A   Overcast
11:15 PM 16.3 °F 5.7 °F 12.0 °F 83% 29.67 in 10.0 mi SW 8.1 mph - N/A   Overcast
11:35 PM 16.7 °F 9.6 °F 12.6 °F 84% 29.67 in 10.0 mi SW 4.6 mph - N/A   Overcast
11:55 PM 17.2 °F 8.9 °F 13.1 °F 84% 29.66 in 10.0 mi SW 5.8 mph - N/A   Overcast